This demonstration page uses our WeatherBlox Daily Observations layout. Learn more.

Left ArrowRight Arrow

Hourly Observations for November 14, 2022

Temp ( °F °C ) Dew Point ( °F °C ) Humidity (%) Winds ( mph kmh ) Pressure ( in mb ) Visibility ( mi km ) Precip ( " mm )
12:53 am 00:53 Clear 43 6.1 25 -3.9 49 49 SE 12 19 29.78 1008 10 16 0.00 0.00
1:53 am 01:53 Clear 43 6.1 25 -3.9 49 49 SE 12 19 29.76 1008 10 16 0.00 0.00
2:53 am 02:53 Clear 41 5 25 -3.9 52 52 SE 13 20 29.76 1008 10 16 0.00 0.00
3:53 am 03:53 Clear 40 4.4 25 -3.9 55 55 SE 8 13 29.76 1008 10 16 0.00 0.00
4:53 am 04:53 Clear 37 2.8 25 -3.9 61 61 N 7 11 29.80 1009 10 16 0.00 0.00
5:53 am 05:53 Clear 34 1.1 24 -4.4 67 67 NNW 5 7 29.84 1010 10 16 0.00 0.00
6:53 am 06:53 Clear 32 0 23 -5 69 69 NNW 5 7 29.87 1012 10 16 0.00 0.00
7:53 am 07:53 Mostly Cloudy 37 2.8 25 -3.9 61 61 Calm 29.92 1013 10 16 0.00 0.00
8:53 am 08:53 Mostly Cloudy 42 5.6 29 -1.7 59 59 SSW 10 17 29.91 1013 10 16 0.01 0.13
9:53 am 09:53 Sunny 50 10 30 -1.1 46 46 W 14 22 29.95 1014 10 16 0.00 0.00
10:23 am 10:23 Sunny 58 14.4 24 -4.4 27 27 NW 23 37 29.95 1014 10 16 0.00 0.00
10:53 am 10:53 Sunny 57 13.9 28 -2.2 33 33 NNW 25 41 29.97 1015 10 16 0.00 0.00
11:53 am 11:53 Sunny 56 13.3 26 -3.3 31 31 N 24 39 30.00 1016 10 16 0.00 0.00
12:53 pm 12:53 Sunny 56 13.3 23 -5 28 28 NNW 17 28 30.00 1016 10 16 0.00 0.00
1:53 pm 13:53 Sunny 56 13.3 25 -3.9 30 30 NNW 21 33 29.98 1015 10 16 0.00 0.00
2:53 pm 14:53 Sunny 55 12.8 23 -5 28 28 N 17 28 30.00 1016 10 16 0.00 0.00
3:53 pm 15:53 Sunny 54 12.2 24 -4.4 31 31 N 18 30 30.01 1016 10 16 0.00 0.00
4:53 pm 16:53 Sunny 51 10.6 23 -5 33 33 N 17 28 30.05 1018 10 16 0.00 0.00
5:53 pm 17:53 Sunny 46 7.8 22 -5.6 38 38 NNE 14 22 30.12 1020 10 16 0.00 0.00
6:53 pm 18:53 Clear 43 6.1 22 -5.6 43 43 NE 10 17 30.15 1021 10 16 0.00 0.00
7:53 pm 19:53 Clear 40 4.4 22 -5.6 48 48 NNE 9 15 30.16 1021 10 16 0.00 0.00
8:53 pm 20:53 Clear 37 2.8 21 -6.1 52 52 E 5 7 30.19 1022 10 16 0.00 0.00
9:53 pm 21:53 Clear 35 1.7 21 -6.1 56 56 NE 6 9 30.21 1023 10 16 0.00 0.00
10:53 pm 22:53 Clear 33 0.6 20 -6.7 58 58 Calm 30.21 1023 10 16 0.00 0.00
11:53 pm 23:53 Clear 30 -1.1 19 -7.2 63 63 Calm 30.24 1024 10 16 0.00 0.00

Powered by AerisWeather